Regional Weather Roundup
Issued by NWS Charleston, SC

Current Version | Previous Version | Text Only | Print | Product List | Glossary Off
Versions: 1 2 3 4 5 6 7 8 9 10 11 12 13 14 15 16 17 18 19 20 21 22 23 24 25 26 27 28 29 30 31 32 33 34 35 36 37 38 39 40 41 42 43 44 45 46 47 48 49 50
228 ASUS42 KCHS 131728 RWRCHS REGIONAL WEATHER ROUNDUP NATIONAL WEATHER SERVICE CHARLESTON SC 1200 PM EST SAT FEB 13 2016 NOTE: "FAIR" INDICATES FEW OR NO CLOUDS BELOW 12,000 FEET WITH NO SIGNIFICANT WEATHER AND/OR OBSTRUCTIONS TO VISIBILITY. NOT ALL STATIONS ARE QUALITY CONTROLLED BY THE NATIONAL WEATHER SERVICE. USE DATA WITH CAUTION...ESPECIALLY DEWPOINT OBSERVATIONS. SCZ027-030-031-034>040-042>050-131800- ...SOUTHEAST SOUTH CAROLINA... CITY SKY/WX TMP DP RH WIND PRES REMARKS N CHARLESTON MOSUNNY 48 21 34 N13G20 30.27F WATERFRONT PRK N/A 44 26 49 N10 30.13S MOUNT PLEASANT FAIR 46 23 39 N9 30.27F JOHNS ISLAND FAIR 48 25 40 N9 30.27F PINOPOLIS N/A 43 21 42 N7 30.22R MONCKS CORNER FAIR 41 16 36 N10 30.29S SUMMERVILLE FAIR 45 23 42 N10G17 30.29F BEAUFORT MCAS SUNNY 48 27 44 N8 30.29F BEAUFORT ARPT FAIR 46 27 46 NW9 30.28F HILTON HEAD IS MOSUNNY 45 30 57 N12G21 30.30F WALTERBORO SUNNY 48 21 34 N6 30.30S ALLENDALE FAIR 46 23 39 CALM 30.29F ...SOUTHERN MIDLANDS AND PEE DEE... CITY SKY/WX TMP DP RH WIND PRES REMARKS GEORGETOWN FAIR 45 21 39 N9 30.28F KINGSTREE FAIR 41 18 38 N8 30.30S ORANGEBURG SUNNY 45 15 30 N9 30.30S BARNWELL FAIR 46 23 39 N8 30.31S AIKEN FAIR 43 19 39 NW5 30.33F MANNING FAIR 41 -9 11 NW13 30.30S COLUMBIA MOSUNNY 44 11 26 N10G20 30.31R SUMTER SUNNY 42 14 31 VRB7 30.28S FLORENCE SUNNY 41 14 33 N13G22 30.30S MYRTLE BEACH SUNNY 43 16 33 N12 30.30 N MYRTLE BEACH SUNNY 42 16 34 N14 30.27S $$ GAZ063-065-086>088-099>101-113>116-118-119-134>141-150-131800- ...SOUTHEAST GEORGIA... CITY SKY/WX TMP DP RH WIND PRES REMARKS SAVANNAH ARPT MOSUNNY 50 26 39 NW12G20 30.30S HUNTER AAF SUNNY 50 28 43 NW10G17 30.26F FORT STEWART SUNNY 50 23 34 NW12G21 30.27F STATESBORO SUNNY 51 14 22 NW5 30.31S SYLVANIA SUNNY 48 29 48 N7 30.31S CLAXTON FAIR 50 28 42 NW8G18 30.31F ...CSRA...CENTRAL AND FAR SOUTHEAST GEORGIA... CITY SKY/WX TMP DP RH WIND PRES REMARKS THOMSON SUNNY 47 19 33 NW7 30.36S AUGUSTA-BUSH SUNNY 45 19 35 W8 30.32S AUGUSTA-DANIEL SUNNY 44 17 33 NW8 30.32R SWAINSBORO FAIR 46 18 31 NW15 30.32F VIDALIA SUNNY 50 21 32 NW10G20 30.32S EASTMAN FAIR 49 14 24 NW9G16 30.37F HAZLEHURST FAIR 51 14 23 N10G17 30.31F ALMA SUNNY 50 21 32 NW13G21 30.32S WAYCROSS SUNNY 57 26 31 NW12G17 30.31S JESUP FAIR 54 28 37 N9 30.30S BAXLEY FAIR 52 21 30 NW12G18 30.30F BRUNSWICK SUNNY 54 27 35 NW6 30.29F SAINT SIMONS SUNNY 52 24 33 NW8 30.28F $$ SCZ027-028-034-036>038-045-046-048>050-GAZ119-141-131800- ...LAKE AND SUPPLEMENTAL COASTAL OBSERVATIONS... STATION/POSITION TIME TEMP WIND PRES WAVE SWELL AIR SEA DIR/SP/G HT/PER HT/PER/DIR (UTC) (F) (DEG/KT/KT) (MB) (FT/S) (FT/S/D) WINYAH BAY 1645 41 30/ 6 1024.0S LAKE MURRAY 1700 41 280/ 7/ 12 1025.7S ACE BASIN NERRS 1600 46 350/ 5 1025.0 FORT PULASKI 1700 45 51 350/ 6/ 8 1025.8F SAPELO ISLAND 1700 52 350/ 6 1025.0F $$ ANZ835-935-AMZ111-154-330-350-352-354-370-450-454-472-131800- ...C-MAN AND BUOY OBSERVATIONS... STATION/POSITION TIME TEMP WIND PRES WAVE SWELL AIR SEA DIR/SP/G HT/PER HT/PER/DIR (UTC) (F) (DEG/KT/KT) (MB) (FT/S) (FT/S/D) BUOY 41004 1650 45 67 360/ 16/ 19 1024.4R 5/ 6 2/10 BUOY 41008 1650 45 53 350/ 10/ 14 1025.8F 3/ 4 2/ 80/ 6 FOLLY BEACH CMAN 1700 44 360/ 7/ 11 1025.3F CAPERS NEARSHORE 1608 42 10/ 10/ 16 1025.1R FRIPP NEARSHORE 1600 44 360/ 12/ 14 1024.7R STATION/POSITION TIME TEMP WIND PRES WAVE SWELL AIR SEA DIR/SP/G HT/PER HT/PER/DIR (UTC) (F) (DEG/KT/KT) (MB) (FT/S) (FT/S/D) 5E ST. MARYS GA 1621 56 N/A 3/ 5 FRYING PAN BUOY 1700 40 61 350/ 16/ 19 1024.8R BUOY 41025 1650 34 71 350/ 21/ 29 1023.2R 6/ 8 CAPE LOOKOUT NC NOT AVBL BUOY 41002 1650 57 68 320/ 19/ 25 N/A 9/ 8 BUOY 41010 1620 67 72 1022.3R ST AUGUSTINE FL 1700 52 58 10/ 15/ 16 1025.9F $$

USA.gov is the U.S. government's official web portal to all federal, state and local government web resources and services.